GW2028 Weather Reports


Display with metric or nautical units.
time (UTC)temp
F
wind
direction
speed
MPH
gust
MPH
rain 1hr
in
rain 24hr
in
rain mn
in
humidity
%
barometer
mb
20260508044503 49 201 2.0 5.0 0.00 0.00 0.00 62 1017.3
20260508044003 49 201 1.0 4.0 0.00 0.00 0.00 61 1017.3
20260508043503 49 201 1.0 3.0 0.00 0.00 0.00 61 1017.3
20260508043003 49 201 2.0 7.0 0.00 0.00 0.00 61 1017.3
20260508042503 49 202 3.0 7.0 0.00 0.00 0.00 61 1017.3
20260508042003 49 205 3.0 9.0 0.00 0.00 0.00 61 1017.3
20260508041504 49 215 3.0 9.0 0.00 0.00 0.00 60 1017.3
20260508041218 49 219 3.0 9.0 0.00 0.00 0.00 60 1017.3
20260508040716 49 222 3.0 5.0 0.00 0.00 0.00 61 1017.2
20260508040004 48 224 3.0 7.0 0.00 0.00 0.00 61 1017.1
20260508035503 48 226 3.0 7.0 0.00 0.00 0.00 61 1017.0
20260508035217 48 227 3.0 6.0 0.00 0.00 0.00 62 1017.1
20260508034503 48 229 2.0 6.0 0.00 0.00 0.00 63 1017.1
20260508034003 48 229 2.0 5.0 0.00 0.00 0.00 64 1017.1
20260508033503 48 229 2.0 5.0 0.00 0.00 0.00 64 1017.0
20260508033003 48 229 2.0 4.0 0.00 0.00 0.00 65 1017.0
20260508032503 48 230 2.0 5.0 0.00 0.00 0.00 66 1017.0
20260508032003 48 233 2.0 6.0 0.00 0.00 0.00 66 1017.0
20260508031503 47 251 2.0 6.0 0.00 0.00 0.00 67 1016.9
20260508031003 47 266 2.0 4.0 0.00 0.00 0.00 69 1016.9
20260508030503 47 266 2.0 4.0 0.00 0.00 0.00 70 1016.8
20260508030003 47 266 2.0 4.0 0.00 0.00 0.00 73 1016.9
20260508025503 47 266 2.0 3.0 0.00 0.00 0.00 73 1017.0
20260508025217 47 266 2.0 3.0 0.00 0.00 0.00 73 1017.0
20260508024718 46 266 2.0 3.0 0.00 0.00 0.00 73 1017.0
20260508024217 46 266 1.0 2.0 0.00 0.00 0.00 73 1017.0
20260508023503 46 266 1.0 2.0 0.00 0.00 0.00 73 1017.1
20260508023003 47 266 0.0 2.0 0.00 0.00 0.00 72 1017.1
20260508022503 47 266 1.0 2.0 0.00 0.00 0.00 71 1017.0
20260508022003 47 266 1.0 2.0 0.00 0.00 0.00 70 1017.1
20260508021718 47 266 1.0 2.0 0.00 0.00 0.00 70 1017.0
20260508021003 47 266 1.0 3.0 0.00 0.00 0.00 69 1017.0
20260508020503 47 266 2.0 3.0 0.00 0.00 0.00 69 1017.0
20260508020003 48 266 2.0 3.0 0.00 0.00 0.00 69 1016.9
20260508015503 48 266 1.0 3.0 0.00 0.00 0.00 68 1017.0
20260508015003 48 266 1.0 2.0 0.00 0.00 0.00 68 1016.9
20260508014503 49 266 1.0 2.0 0.00 0.00 0.00 67 1016.9
20260508014003 49 266 1.0 2.0 0.00 0.00 0.00 66 1016.8
20260508013503 49 266 1.0 2.0 0.00 0.00 0.00 65 1016.8
20260508013003 49 266 1.0 2.0 0.00 0.00 0.00 63 1016.8
20260508012503 49 266 0.0 2.0 0.00 0.00 0.00 63 1016.9
20260508012003 50 0 0.0 0.0 0.00 0.00 0.00 62 1016.8
20260508011503 50 266 0.0 1.0 0.00 0.00 0.00 63 1016.7
20260508011003 50 266 0.0 1.0 0.00 0.00 0.00 62 1016.7
20260508010503 50 266 0.0 2.0 0.00 0.00 0.00 62 1016.7
20260508010003 51 266 0.0 3.0 0.00 0.00 0.00 62 1016.6
20260508005717 51 266 0.0 3.0 0.00 0.00 0.00 61 1016.6
20260508005003 51 266 1.0 2.0 0.00 0.00 0.00 61 1016.7
20260508004503 51 266 1.0 3.0 0.00 0.00 0.00 60 1016.7
20260508004003 51 266 2.0 3.0 0.00 0.00 0.00 60 1016.7
20260508003503 51 266 2.0 3.0 0.00 0.00 0.00 60 1016.7
20260508003003 52 266 2.0 4.0 0.00 0.00 0.00 60 1016.6
20260508002503 52 266 2.0 6.0 0.00 0.00 0.00 60 1016.6
20260508002003 52 266 2.0 6.0 0.00 0.00 0.00 60 1016.6
20260508001717 52 266 2.0 4.0 0.00 0.00 0.00 60 1016.5
20260508001003 52 274 2.0 7.0 0.00 0.00 0.00 58 1016.5
20260508000503 52 321 2.0 6.0 0.00 0.00 0.00 59 1016.5
20260508000003 52 360 2.0 8.0 0.00 0.00 0.00 59 1016.5
20260507235503 53 360 2.0 8.0 0.00 0.00 0.00 59 1016.4
20260507235003 53 359 2.0 6.0 0.00 0.00 0.00 56 1016.4
20260507234503 53 296 3.0 8.0 0.00 0.00 0.00 55 1016.4
20260507234003 53 266 3.0 8.0 0.00 0.00 0.00 54 1016.4
20260507233717 53 266 3.0 8.0 0.00 0.00 0.00 55 1016.4
20260507233003 54 267 3.0 9.0 0.00 0.00 0.00 55 1016.4
20260507232503 54 268 3.0 9.0 0.00 0.00 0.00 56 1016.5
20260507232003 54 268 3.0 8.0 0.00 0.00 0.00 55 1016.4
20260507231503 54 268 3.0 8.0 0.00 0.00 0.00 54 1016.4
20260507231003 54 268 3.0 7.0 0.00 0.00 0.00 53 1016.5
20260507230503 54 268 3.0 7.0 0.00 0.00 0.00 53 1016.5
20260507230218 54 268 3.0 7.0 0.00 0.00 0.00 55 1016.5
20260507225503 54 268 3.0 8.0 0.00 0.00 0.00 54 1016.5
20260507225003 55 269 3.0 10.0 0.00 0.00 0.00 52 1016.6
20260507224717 55 270 4.0 12.0 0.00 0.00 0.00 53 1016.5
20260507224003 55 267 5.0 12.0 0.00 0.00 0.00 51 1016.6
20260507223503 55 265 4.0 9.0 0.00 0.00 0.00 53 1016.6
20260507223003 55 266 4.0 12.0 0.00 0.00 0.00 56 1016.7
20260507222716 55 265 5.0 12.0 0.00 0.00 0.00 54 1016.6
20260507222003 54 261 4.0 8.0 0.00 0.00 0.00 55 1016.6
20260507221503 54 261 5.0 9.0 0.00 0.00 0.00 58 1016.5
20260507221003 54 263 4.0 9.0 0.00 0.00 0.00 56 1016.5
20260507220503 54 265 5.0 9.0 0.00 0.00 0.00 56 1016.4
20260507220003 54 264 5.0 10.0 0.00 0.00 0.00 55 1016.5
20260507215503 54 264 3.0 10.0 0.00 0.00 0.00 55 1016.4
20260507215003 54 267 4.0 9.0 0.00 0.00 0.00 59 1016.3
20260507214718 54 268 5.0 9.0 0.00 0.00 0.00 56 1016.4
20260507214217 54 269 5.0 9.0 0.00 0.00 0.00 55 1016.4
20260507213503 54 271 4.0 11.0 0.00 0.00 0.00 54 1016.4
20260507213003 54 268 4.0 11.0 0.00 0.00 0.00 60 1016.4
20260507212503 54 268 4.0 10.0 0.00 0.00 0.00 58 1016.3
20260507212003 54 308 4.0 10.0 0.00 0.00 0.00 58 1016.2
20260507211503 54 355 4.0 8.0 0.00 0.00 0.00 60 1016.2
20260507211003 54 360 4.0 8.0 0.00 0.00 0.00 56 1016.1
20260507210503 54 356 4.0 14.0 0.00 0.00 0.00 59 1016.1
20260507210217 54 357 5.0 14.0 0.00 0.00 0.00 58 1016.1
20260507205718 53 360 4.0 14.0 0.00 0.00 0.00 57 1016.1
20260507205003 53 360 4.0 9.0 0.00 0.00 0.00 60 1016.0
20260507204503 53 360 3.0 9.0 0.00 0.00 0.00 60 1016.1
20260507204217 53 360 3.0 9.0 0.00 0.00 0.00 59 1016.1
20260507203503 53 360 3.0 11.0 0.00 0.00 0.00 63 1016.1
20260507203003 53 352 4.0 11.0 0.00 0.00 0.00 61 1016.1
20260507202503 54 287 3.0 9.0 0.00 0.00 0.00 61 1016.1
20260507202003 54 265 2.0 9.0 0.00 0.00 0.00 57 1016.2
20260507201503 55 265 2.0 8.0 0.00 0.00 0.00 62 1016.1
20260507201003 55 266 3.0 8.0 0.00 0.00 0.00 60 1016.0
20260507200503 55 266 3.0 8.0 0.00 0.00 0.00 59 1016.1
20260507200003 55 266 2.0 8.0 0.00 0.00 0.00 59 1016.2
20260507195503 54 266 2.0 4.0 0.00 0.00 0.00 59 1016.2
20260507195003 54 266 2.0 4.0 0.00 0.00 0.00 59 1016.4
20260507194503 55 265 2.0 6.0 0.00 0.00 0.00 56 1016.4
20260507194003 56 265 3.0 8.0 0.00 0.00 0.00 58 1016.5
20260507193503 56 274 3.0 8.0 0.00 0.00 0.00 58 1016.4
20260507193216 56 306 2.0 6.0 0.00 0.00 0.00 61 1016.5
20260507192503 55 339 3.0 8.0 0.00 0.00 0.00 56 1016.6
20260507192003 55 340 3.0 8.0 0.00 0.00 0.00 59 1016.5
20260507191503 55 350 3.0 10.0 0.00 0.00 0.00 54 1016.6
20260507191003 55 296 5.0 12.0 0.00 0.00 0.00 52 1016.7
20260507190503 55 264 5.0 12.0 0.00 0.00 0.00 52 1016.6
20260507190004 56 262 4.0 11.0 0.00 0.00 0.00 55 1016.7
20260507185503 56 262 3.0 9.0 0.00 0.00 0.00 60 1016.6
20260507185003 56 262 3.0 9.0 0.00 0.00 0.00 59 1016.6
20260507184503 56 264 2.0 9.0 0.00 0.00 0.00 55 1016.7
20260507184003 56 265 2.0 4.0 0.00 0.00 0.00 61 1016.7
20260507183503 56 266 3.0 6.0 0.00 0.00 0.00 63 1016.7
20260507183003 56 266 2.0 6.0 0.00 0.00 0.00 55 1016.7
20260507182503 56 266 2.0 6.0 0.00 0.00 0.00 56 1016.8
20260507182003 56 266 3.0 8.0 0.00 0.00 0.00 62 1016.8
20260507181717 56 266 3.0 8.0 0.00 0.00 0.00 58 1016.8
20260507181003 56 265 2.0 6.0 0.00 0.00 0.00 58 1016.8
20260507180503 56 265 2.0 4.0 0.00 0.00 0.00 54 1016.8
20260507180003 56 265 2.0 4.0 0.00 0.00 0.00 57 1016.8
20260507175717 56 265 2.0 4.0 0.00 0.00 0.00 55 1016.9
20260507175003 56 265 3.0 8.0 0.00 0.00 0.00 59 1016.9
20260507174503 56 265 2.0 8.0 0.00 0.00 0.00 61 1016.8
20260507174003 55 265 2.0 7.0 0.00 0.00 0.00 58 1016.8
20260507173717 55 265 3.0 12.0 0.00 0.00 0.00 62 1016.9
20260507173218 55 265 4.0 12.0 0.00 0.00 0.00 56 1016.9
20260507172503 56 266 4.0 11.0 0.00 0.00 0.00 53 1017.0
20260507172003 56 266 3.0 11.0 0.00 0.00 0.00 53 1016.9
20260507171503 56 267 2.0 7.0 0.00 0.00 0.00 65 1017.0
20260507171003 55 266 2.0 7.0 0.00 0.00 0.00 57 1017.0
20260507170503 56 265 3.0 6.0 0.00 0.00 0.00 62 1017.0
20260507170003 55 264 3.0 6.0 0.00 0.00 0.00 62 1017.0
20260507165503 56 262 3.0 10.0 0.00 0.00 0.00 60 1016.9
20260507165003 55 262 3.0 10.0 0.00 0.00 0.00 56 1016.9
20260507164503 56 261 2.0 4.0 0.00 0.00 0.00 59 1016.9
20260507164217 56 261 2.0 4.0 0.00 0.00 0.00 61 1016.9
20260507163716 56 261 2.0 6.0 0.00 0.00 0.00 57 1017.0
20260507163217 56 261 2.0 6.0 0.00 0.00 0.00 59 1016.9
20260507162503 56 261 2.0 4.0 0.00 0.00 0.00 58 1016.9
20260507162003 56 261 2.0 4.0 0.00 0.00 0.00 62 1016.9
20260507161503 56 260 2.0 8.0 0.00 0.00 0.00 60 1016.9
20260507161003 56 260 3.0 8.0 0.00 0.00 0.00 56 1016.8
20260507160503 56 260 3.0 8.0 0.00 0.00 0.00 54 1016.9
20260507160217 56 260 3.0 8.0 0.00 0.00 0.00 56 1016.9
20260507155503 56 260 2.0 9.0 0.00 0.00 0.00 55 1016.9
20260507155003 56 259 2.0 10.0 0.00 0.00 0.00 58 1016.9
20260507154503 56 258 3.0 10.0 0.00 0.00 0.00 61 1017.0
20260507154217 56 257 2.0 10.0 0.00 0.00 0.00 61 1017.0
20260507153504 56 257 2.0 6.0 0.00 0.00 0.00 64 1016.9
20260507153003 56 257 2.0 4.0 0.00 0.00 0.00 59 1017.0
20260507152503 56 257 1.0 4.0 0.00 0.00 0.00 66 1016.9
20260507152217 56 257 2.0 6.0 0.00 0.00 0.00 64 1016.9
20260507151503 55 257 2.0 6.0 0.00 0.00 0.00 61 1017.0
20260507151003 55 257 2.0 8.0 0.00 0.00 0.00 68 1017.0
20260507150503 55 257 3.0 8.0 0.00 0.00 0.00 63 1017.0
20260507150003 55 257 3.0 8.0 0.00 0.00 0.00 63 1017.0
20260507145718 55 256 3.0 8.0 0.00 0.00 0.00 64 1017.0
20260507145003 55 252 3.0 9.0 0.00 0.00 0.00 60 1016.9
20260507144503 55 229 3.0 9.0 0.00 0.00 0.00 61 1017.0
20260507144003 55 199 3.0 5.0 0.00 0.00 0.00 63 1016.9
20260507143503 54 198 2.0 5.0 0.00 0.00 0.00 58 1016.8
20260507143003 54 194 2.0 5.0 0.00 0.00 0.00 57 1016.8
20260507142503 54 192 2.0 4.0 0.00 0.00 0.00 59 1016.9
20260507142003 54 192 2.0 5.0 0.00 0.00 0.00 61 1016.9
20260507141503 54 191 2.0 5.0 0.00 0.00 0.00 65 1017.0
20260507141003 54 190 1.0 3.0 0.00 0.00 0.00 67 1017.1
20260507140503 53 190 1.0 3.0 0.00 0.00 0.00 65 1017.1
20260507140003 53 190 1.0 3.0 0.00 0.00 0.00 66 1017.1
20260507135503 53 190 1.0 4.0 0.00 0.00 0.00 67 1017.2
20260507135003 53 190 2.0 4.0 0.00 0.00 0.00 70 1017.3
20260507134503 53 190 2.0 4.0 0.00 0.00 0.00 67 1017.4
20260507134218 53 190 2.0 4.0 0.00 0.00 0.00 67 1017.4
20260507133503 53 190 2.0 4.0 0.00 0.00 0.00 70 1017.3
20260507133003 52 190 2.0 4.0 0.00 0.00 0.00 71 1017.4
20260507132717 52 190 2.0 4.0 0.00 0.00 0.00 69 1017.4
20260507132003 52 190 2.0 4.0 0.00 0.00 0.00 73 1017.3
20260507131503 52 189 2.0 5.0 0.00 0.00 0.00 73 1017.3
20260507131003 52 186 2.0 5.0 0.00 0.00 0.00 71 1017.3
20260507130503 51 184 2.0 4.0 0.00 0.00 0.00 72 1017.3
20260507130003 51 184 2.0 4.0 0.00 0.00 0.00 72 1017.3
20260507125503 51 184 2.0 4.0 0.00 0.00 0.00 72 1017.3
20260507125003 51 184 1.0 4.0 0.00 0.00 0.00 74 1017.4
20260507124503 50 184 1.0 4.0 0.00 0.00 0.00 72 1017.3
20260507124003 50 184 1.0 3.0 0.00 0.00 0.00 73 1017.3
20260507123503 50 184 1.0 3.0 0.00 0.00 0.00 74 1017.4
20260507123218 50 183 1.0 3.0 0.00 0.00 0.00 74 1017.4
20260507122503 49 182 1.0 4.0 0.00 0.00 0.00 72 1017.3
20260507122003 49 181 1.0 4.0 0.00 0.00 0.00 73 1017.3
20260507121503 49 181 1.0 3.0 0.00 0.00 0.00 73 1017.3
20260507121003 48 181 0.0 3.0 0.00 0.00 0.00 73 1017.2
20260507120717 48 181 1.0 4.0 0.00 0.00 0.00 73 1017.3
20260507120004 48 181 1.0 4.0 0.00 0.00 0.00 73 1017.2
20260507115503 48 181 1.0 4.0 0.00 0.00 0.00 74 1017.2
20260507115003 47 181 1.0 3.0 0.00 0.00 0.00 75 1017.1
20260507114503 47 181 1.0 3.0 0.00 0.00 0.00 76 1017.1
20260507114003 47 181 0.0 3.0 0.00 0.00 0.00 76 1017.2
20260507113503 46 0 0.0 0.0 0.00 0.00 0.00 77 1017.2
20260507113003 46 0 0.0 0.0 0.00 0.00 0.00 77 1017.2
20260507112503 46 0 0.0 0.0 0.00 0.00 0.00 77 1017.1
20260507112003 46 181 1.0 3.0 0.00 0.00 0.00 77 1017.1
20260507111504 46 181 1.0 3.0 0.00 0.00 0.00 77 1017.1
20260507111217 46 181 1.0 3.0 0.00 0.00 0.00 77 1017.1
20260507110503 45 181 1.0 3.0 0.00 0.00 0.00 77 1017.0
20260507110217 45 181 2.0 3.0 0.00 0.00 0.00 77 1016.8
20260507105503 45 181 2.0 4.0 0.00 0.00 0.00 78 1016.8
20260507105003 45 181 1.0 4.0 0.00 0.00 0.00 78 1016.8
20260507104503 45 181 1.0 3.0 0.00 0.00 0.00 78 1016.7
20260507104003 45 181 2.0 3.0 0.00 0.00 0.00 78 1016.7
20260507103503 45 181 1.0 4.0 0.00 0.00 0.00 78 1016.7
20260507103003 45 181 2.0 4.0 0.00 0.00 0.00 79 1016.6
20260507102503 45 181 2.0 5.0 0.00 0.00 0.00 79 1016.6
20260507102003 45 181 2.0 5.0 0.00 0.00 0.00 79 1016.6
20260507101503 45 181 2.0 4.0 0.00 0.00 0.00 78 1016.5
20260507101003 45 181 2.0 4.0 0.00 0.00 0.00 78 1016.6
20260507100503 45 181 1.0 3.0 0.00 0.00 0.00 79 1016.6
20260507100217 45 181 1.0 3.0 0.00 0.00 0.00 78 1016.5
20260507095718 45 181 2.0 3.0 0.00 0.00 0.00 78 1016.5
20260507095003 45 181 1.0 3.0 0.00 0.00 0.00 79 1016.6
20260507094503 45 181 2.0 4.0 0.00 0.00 0.00 79 1016.6
20260507094003 45 181 1.0 4.0 0.00 0.01 0.00 79 1016.6
20260507093503 45 181 1.0 3.0 0.00 0.01 0.00 79 1016.6
20260507093003 45 181 2.0 3.0 0.00 0.01 0.00 79 1016.5
20260507092503 45 181 2.0 5.0 0.00 0.01 0.00 79 1016.5
20260507092003 45 181 2.0 5.0 0.00 0.01 0.00 80 1016.5
20260507091503 45 181 2.0 4.0 0.00 0.02 0.00 80 1016.6
20260507091003 44 181 2.0 5.0 0.00 0.02 0.00 80 1016.6
20260507090503 44 181 2.0 5.0 0.00 0.02 0.00 80 1016.6
20260507090004 44 181 2.0 4.0 0.00 0.02 0.00 81 1016.6
20260507085717 44 181 2.0 4.0 0.00 0.02 0.00 81 1016.5
20260507085216 44 181 2.0 4.0 0.00 0.02 0.00 81 1016.6
20260507084503 44 181 2.0 5.0 0.00 0.02 0.00 82 1016.7
20260507084003 44 181 2.0 5.0 0.00 0.03 0.00 82 1016.7
20260507083503 44 181 2.0 5.0 0.00 0.03 0.00 83 1016.7
20260507083003 44 182 2.0 7.0 0.00 0.04 0.00 83 1016.7
20260507082503 44 182 2.0 7.0 0.00 0.04 0.00 83 1016.7
20260507082216 44 182 2.0 7.0 0.00 0.05 0.00 83 1016.7
20260507081503 44 182 2.0 3.0 0.00 0.06 0.00 83 1016.8
20260507081003 44 182 2.0 4.0 0.00 0.07 0.00 83 1016.8
20260507080503 44 182 2.0 4.0 0.00 0.07 0.00 82 1016.8
20260507080003 44 182 2.0 4.0 0.00 0.08 0.00 83 1016.7
20260507075503 44 182 2.0 4.0 0.00 0.08 0.00 83 1016.8
20260507075003 44 182 3.0 6.0 0.00 0.09 0.00 83 1016.8
20260507074503 44 182 3.0 6.0 0.00 0.09 0.00 83 1016.8
20260507074003 44 182 3.0 6.0 0.00 0.10 0.00 82 1016.8
20260507073503 44 184 3.0 7.0 0.00 0.10 0.00 82 1016.8
20260507073218 44 185 3.0 7.0 0.00 0.10 0.00 82 1016.8
20260507072503 44 181 3.0 9.0 0.00 0.11 0.00 82 1016.8
20260507072003 44 167 3.0 9.0 0.00 0.11 0.00 82 1016.8
20260507071503 44 155 3.0 6.0 0.00 0.11 0.00 82 1016.8
20260507071003 44 154 3.0 7.0 0.00 0.12 0.00 82 1016.9
20260507070503 44 154 3.0 7.0 0.00 0.12 0.00 82 1016.9
20260507070004 44 153 3.0 7.0 0.00 0.12 0.00 82 1017.0
20260507065503 44 146 3.0 7.0 0.00 0.12 0.00 82 1017.0
20260507065003 44 140 2.0 7.0 0.00 0.12 0.00 82 1017.1
20260507064503 44 140 2.0 8.0 0.00 0.12 0.00 82 1017.1
20260507064003 44 140 3.0 9.0 0.00 0.12 0.00 82 1017.0
20260507063503 44 141 3.0 9.0 0.00 0.12 0.00 82 1017.1
20260507063003 44 142 3.0 9.0 0.00 0.12 0.00 82 1017.3
20260507062503 44 142 2.0 7.0 0.00 0.12 0.00 82 1017.3
20260507062003 44 142 2.0 7.0 0.00 0.12 0.00 82 1017.4
20260507061503 44 142 3.0 8.0 0.00 0.12 0.00 81 1017.5
20260507061003 44 142 2.0 8.0 0.00 0.13 0.00 81 1017.4
20260507060503 44 142 3.0 7.0 0.00 0.13 0.00 81 1017.5
20260507060003 44 142 3.0 7.0 0.00 0.13 0.00 81 1017.5
20260507055503 44 142 2.0 7.0 0.00 0.13 0.00 81 1017.5
20260507055003 44 142 2.0 5.0 0.00 0.13 0.00 80 1017.5
20260507054503 44 142 2.0 5.0 0.00 0.14 0.00 80 1017.5
20260507054003 44 141 2.0 5.0 0.00 0.14 0.00 80 1017.4
20260507053503 44 141 3.0 7.0 0.00 0.14 0.00 79 1017.5
20260507053217 44 141 3.0 7.0 0.00 0.14 0.00 79 1017.5
20260507052718 45 142 2.0 7.0 0.00 0.15 0.00 78 1017.6
20260507052217 45 142 2.0 5.0 0.00 0.15 0.00 78 1017.6
20260507051503 45 141 2.0 7.0 0.00 0.15 0.00 77 1017.6
20260507051003 45 141 2.0 7.0 0.00 0.16 0.00 76 1017.7
20260507050503 45 141 2.0 5.0 0.00 0.16 0.00 75 1017.8
20260507050003 45 142 2.0 5.0 0.00 0.16 0.00 74 1018.0
20260507045503 46 142 2.0 5.0 0.00 0.16 0.00 74 1018.0
20260507045217 46 142 2.0 7.0 0.00 0.16 0.00 74 1017.9